Dewpoint
9 9 9 9 8 8 9 10 10 10 10 10 10 10 10 10 10 11 12 13 14 14 14 15 14 15 15 15 13 13 13 12 13 13 12 12 12 13 12 12 12 12 12 12 12 12 12 11 11 11 12 11 10 11 11 10 11 10 10 10 9 9 9 8 5 4 6 8 9 7 8 8 8 10 10 13 13 12 13 11 11 10 10 10 9
8 8 8 8 7 8 8 9 10 10 9 9 9 10 10 10 11 11 11 13 14 14 14 14 14 15 15 13 13 13 13 12 12 13 11 11 11 11 11 11 11 11 11 10 11 11 11 10 10 10 11 10 10 10 10 10 10 10 9 9 8 8 9 7 5 4 4 5 5 6 6 6 7 7 10 10 10 11 10 10 10 9 10 9 9
7 7 7 7 7 8 8 9 9 9 9 10 10 10 10 10 12 11 11 12 13 13 13 14 13 14 13 13 12 11 11 11 11 12 11 11 11 11 11 11 11 10 10 10 10 11 10 10 9 10 10 9 9 9 9 9 9 9 8 9 8 8 8 9 7 4 3 4 6 5 6 5 5 7 7 9 10 10 10 9 9 9 9 9 9
8 7 7 7 7 8 8 8 8 8 9 9 9 10 11 11 11 11 11 12 12 12 12 13 11 12 11 12 11 10 10 11 11 11 11 11 11 11 10 9 8 8 8 7 8 8 8 8 8 9 9 9 8 8 9 9 9 9 9 8 8 8 8 8 8 7 6 4 4 5 6 6 6 6 8 9 9 9 8 8 9 9 9 9 10
8 7 7 6 6 6 6 7 7 7 8 8 9 10 10 10 10 11 11 11 11 12 11 12 11 10 11 10 11 10 10 10 10 11 11 9 7 7 7 7 6 7 7 7 7 7 7 7 7 6 5 4 5 6 7 7 8 8 8 8 8 8 8 8 8 8 6 4 4 5 6 5 6 6 6 7 7 7 7 7 7 8 9 10 11
7 6 5 5 4 4 5 6 6 7 7 7 8 8 9 9 9 10 10 10 11 10 11 10 11 9 11 10 11 10 9 10 11 10 7 6 5 5 5 5 4 6 5 5 6 5 3 2 3 4 3 4 4 5 6 5 6 7 7 7 8 8 8 7 7 6 5 4 4 3 4 3 3 3 4 5 5 4 5 6 7 8 7 7 7
5 5 4 4 4 4 4 5 6 6 6 6 7 7 7 8 8 9 10 9 9 9 9 9 8 8 9 9 9 9 9 10 10 5 4 3 2 1 2 2 2 4 3 3 1 -0 -0 0 1 1 2 2 3 3 4 5 6 6 6 7 6 7 7 6 5 3 2 2 3 2 2 2 2 1 2 3 4 5 4 5 3 4 5 5 4
4 4 3 3 3 3 4 5 5 5 5 6 6 6 6 7 7 8 9 8 8 8 7 7 7 7 7 8 8 7 7 7 8 3 1 1 -1 -2 -2 -1 -1 0 -1 -2 -3 -3 -3 -2 -3 -2 -0 0 1 2 3 3 4 3 4 3 3 3 4 5 4 2 -0 -0 1 0 -0 -1 0 -0 1 -1 -0 0 3 3 1 1 2 0 -0
3 3 3 2 3 3 4 4 5 4 4 5 5 5 5 6 6 7 7 7 8 7 6 6 6 6 6 7 5 4 4 5 7 3 0 -3 -4 -5 -5 -4 -5 -4 -5 -6 -6 -5 -5 -5 -5 -4 -2 -0 1 1 2 3 1 1 1 1 0 1 2 3 5 4 1 2 1 -0 -2 -2 -3 -4 -4 -5 -5 -3 -1 1 0 -1 -3 -3 0
2 1 1 1 2 2 2 3 3 3 3 3 3 4 4 5 5 5 5 6 6 6 4 4 3 4 4 2 1 2 2 3 6 7 2 -4 -7 -9 -8 -7 -7 -8 -8 -9 -9 -7 -8 -8 -7 -4 -3 -2 -2 -1 0 1 1 0 -0 -1 -1 -1 -0 1 2 3 3 1 -1 1 0 -2 -3 -4 -5 -5 -3 -2 -1 1 -0 -1 -4 -4 -3
-0 -0 -1 -0 1 1 1 1 2 1 2 2 2 2 2 3 3 3 3 4 4 3 2 2 -1 -1 -1 -2 -4 -3 -1 1 4 6 9 1 -8 -11 -11 -11 -10 -10 -10 -11 -11 -9 -10 -10 -9 -7 -6 -5 -4 -3 -2 -1 -1 -1 -0 -0 -0 -1 -1 -0 0 2 2 2 2 2 1 -0 -0 -2 -5 -3 -4 -3 -1 0 -0 -1 -3 -4 -7
-2 -2 -1 -1 -0 -0 -0 0 0 0 1 0 1 1 1 1 1 1 1 2 2 1 0 -2 -5 -5 -6 -6 -7 -6 -3 1 3 4 10 11 -3 -11 -13 -13 -12 -12 -12 -12 -11 -11 -10 -10 -10 -9 -10 -7 -6 -8 -6 -3 -2 -2 -1 -1 -1 -0 1 1 1 0 1 0 0 1 1 0 0 -3 -3 -3 -1 -0 -0 -1 -1 -0 -1 -4 -6
-3 -3 -2 -2 -1 -1 -1 -1 -1 -1 -1 -1 -2 -1 -2 -2 -1 0 -1 -2 -1 -1 -1 -5 -8 -8 -9 -9 -9 -8 -6 -1 1 2 7 11 8 -9 -14 -15 -14 -14 -14 -14 -13 -12 -11 -11 -12 -9 -9 -6 -6 -9 -8 -7 -3 -2 -2 -2 -3 -2 -1 1 2 2 2 1 1 0 -0 -1 -1 -0 -2 1 4 3 1 -5 -3 -2 -1 -3 -5
-4 -3 -3 -2 -2 -2 -2 -3 -3 -3 -3 -3 -4 -3 -4 -4 -2 -1 -4 -4 -3 -4 -3 -7 -10 -11 -10 -11 -11 -11 -9 -3 -1 0 3 10 6 -5 -17 -16 -16 -15 -14 -13 -12 -12 -12 -12 -11 -10 -9 -9 -9 -8 -6 -5 -5 -5 -7 -7 -8 -6 -3 -1 -0 2 3 1 1 -0 1 0 1 2 3 5 4 2 1 -2 -0 -1 -1 -3 -4
-5 -4 -4 -4 -4 -4 -4 -5 -5 -5 -5 -6 -5 -5 -5 -5 -4 -4 -6 -6 -6 -6 -5 -7 -11 -12 -12 -12 -12 -13 -12 -5 -2 -1 -0 9 3 -8 -16 -15 -15 -16 -13 -13 -13 -12 -12 -12 -11 -9 -10 -9 -8 -4 -2 -1 -0 -2 -5 -7 -8 -8 -6 -6 -3 1 3 2 2 3 4 4 4 5 6 5 4 4 5 4 4 4 2 -4 -6
-6 -6 -6 -5 -5 -5 -5 -7 -7 -7 -7 -8 -8 -7 -7 -7 -7 -7 -8 -8 -8 -8 -9 -8 -10 -13 -14 -13 -14 -14 -13 -7 -4 -3 -2 7 -5 -12 -15 -15 -15 -16 -13 -13 -12 -11 -12 -11 -10 -10 -9 -9 -5 -2 -1 -0 -2 -3 -4 -6 -8 -7 -5 0 4 6 6 5 5 4 4 5 8 6 5 4 -2 -3 -1 -3 -3 -4 -6 -11 -11
-8 -8 -7 -7 -7 -7 -7 -9 -10 -11 -11 -12 -12 -11 -10 -9 -9 -7 -11 -11 -11 -11 -11 -12 -10 -12 -14 -14 -14 -14 -14 -10 -6 -4 -4 6 -6 -12 -15 -15 -15 -15 -13 -13 -12 -12 -12 -11 -10 -9 -9 -8 -4 -3 -1 -0 -5 -5 -3 -4 -6 -6 -5 -6 -1 3 5 6 7 9 10 11 11 10 10 7 5 -1 -9 -8 -7 -10 -10 -14 -13
-10 -9 -9 -10 -10 -11 -11 -13 -15 -15 -15 -14 -14 -14 -12 -11 -10 -9 -12 -13 -13 -12 -11 -14 -14 -13 -14 -15 -13 -15 -15 -12 -8 -5 -5 -3 -6 -12 -14 -15 -16 -14 -13 -13 -12 -12 -12 -9 -8 -9 -8 -6 -4 -3 -0 -2 -4 -4 -3 -3 -6 -8 -7 -8 -7 -3 2 1 1 2 2 2 1 0 2 3 3 2 -4 -8 -5 -8 -11 -11 -12
-11 -10 -10 -13 -14 -14 -15 -16 -18 -18 -18 -17 -18 -17 -14 -13 -11 -11 -12 -14 -13 -13 -12 -14 -15 -14 -14 -15 -12 -16 -15 -13 -10 -7 -5 -4 -6 -13 -13 -16 -15 -14 -14 -14 -13 -13 -13 -11 -9 -7 -7 -6 -4 -2 -1 -2 -3 -4 -3 -3 -6 -8 -8 -13 -9 -7 -6 -5 -5 -4 -4 -4 -5 -6 -4 -2 -1 1 -2 -3 -5 -8 -11 -11 -10
-12 -12 -14 -18 -18 -17 -18 -17 -18 -19 -20 -19 -19 -18 -16 -15 -14 -13 -14 -13 -14 -15 -14 -15 -17 -15 -14 -14 -15 -16 -15 -15 -12 -8 -6 -6 -6 -9 -15 -13 -13 -14 -14 -14 -15 -15 -13 -12 -10 -8 -6 -6 -5 -3 -2 -3 -4 -5 -3 -4 -4 -6 -7 -13 -7 -8 -9 -7 -7 -7 -7 -7 -7 -7 -8 -8 -6 -5 -3 -3 -3 -4 -9 -11 -10
-16 -19 -20 -20 -20 -20 -20 -20 -20 -20 -20 -20 -21 -19 -19 -17 -17 -16 -17 -16 -16 -16 -16 -16 -18 -17 -15 -15 -15 -16 -15 -15 -14 -10 -7 -7 -7 -9 -12 -11 -11 -12 -15 -15 -16 -16 -14 -12 -11 -9 -8 -7 -6 -5 -3 -3 -4 -6 -4 -4 -3 -3 -6 -12 -10 -6 -11 -9 -8 -8 -8 -8 -8 -9 -8 -8 -7 -7 -7 -6 -6 -5 -6 -9 -10
-21 -23 -21 -21 -20 -21 -21 -20 -19 -21 -20 -20 -22 -20 -18 -18 -20 -22 -21 -22 -20 -20 -22 -18 -21 -19 -17 -16 -17 -17 -16 -14 -14 -11 -9 -8 -8 -8 -10 -10 -10 -11 -14 -16 -16 -16 -14 -13 -11 -10 -9 -8 -8 -6 -5 -5 -6 -7 -6 -3 -3 -4 -8 -10 -13 -14 -12 -12 -11 -11 -11 -11 -11 -10 -9 -9 -9 -8 -9 -9 -8 -8 -6 -4 -4
-24 -23 -21 -22 -21 -21 -21 -21 -21 -22 -21 -21 -24 -22 -21 -20 -20 -19 -21 -21 -21 -20 -20 -20 -20 -19 -19 -19 -20 -18 -18 -17 -13 -12 -10 -10 -9 -9 -9 -10 -10 -11 -14 -17 -17 -17 -15 -13 -11 -10 -10 -10 -9 -8 -8 -8 -8 -8 -5 -5 -6 -5 -7 -11 -11 -14 -13 -13 -13 -13 -13 -13 -12 -12 -11 -11 -10 -9 -9 -9 -10 -11 -10 -8 -6
-25 -23 -21 -23 -22 -21 -22 -22 -22 -22 -22 -22 -22 -23 -21 -21 -20 -20 -21 -21 -22 -20 -19 -19 -21 -20 -20 -18 -18 -17 -17 -18 -15 -12 -11 -11 -11 -10 -10 -11 -11 -12 -13 -17 -17 -17 -16 -14 -12 -12 -11 -11 -11 -11 -11 -10 -11 -9 -8 -8 -8 -8 -10 -11 -13 -16 -15 -14 -15 -15 -14 -13 -13 -12 -11 -10 -10 -10 -10 -10 -11 -12 -12 -11 -10
-23 -23 -24 -24 -22 -23 -23 -23 -23 -23 -23 -24 -23 -22 -21 -22 -20 -20 -20 -20 -21 -21 -19 -19 -21 -21 -20 -19 -19 -18 -18 -18 -17 -14 -12 -12 -12 -11 -11 -12 -12 -12 -14 -16 -16 -16 -14 -13 -13 -13 -13 -13 -13 -13 -14 -12 -12 -11 -10 -10 -10 -11 -11 -12 -14 -17 -16 -17 -18 -17 -16 -14 -14 -13 -11 -11 -10 -10 -11 -10 -11 -12 -11 -11 -11
-23 -24 -24 -23 -23 -24 -24 -22 -23 -24 -24 -24 -23 -25 -25 -23 -22 -20 -20 -21 -22 -20 -19 -19 -19 -20 -21 -21 -20 -20 -19 -18 -16 -15 -13 -13 -13 -12 -12 -12 -13 -13 -14 -15 -17 -16 -15 -15 -15 -15 -15 -15 -16 -16 -16 -16 -14 -14 -13 -12 -14 -13 -12 -13 -14 -16 -17 -17 -16 -17 -16 -15 -13 -12 -12 -12 -12 -12 -11 -11 -12 -13 -13 -13 -14
-24 -25 -25 -24 -23 -23 -24 -21 -22 -23 -23 -22 -23 -25 -23 -24 -22 -20 -20 -20 -20 -20 -20 -18 -19 -19 -20 -20 -20 -19 -19 -18 -16 -15 -14 -14 -15 -15 -15 -15 -14 -14 -15 -18 -18 -20 -18 -17 -17 -17 -17 -17 -17 -17 -17 -17 -17 -18 -18 -16 -15 -14 -13 -13 -14 -15 -16 -17 -17 -17 -16 -15 -14 -12 -13 -12 -13 -12 -11 -11 -13 -14 -13 -14 -16
-27 -28 -26 -26 -23 -23 -24 -19 -22 -24 -24 -25 -24 -22 -21 -23 -23 -20 -20 -18 -17 -19 -21 -19 -18 -19 -19 -19 -19 -19 -19 -18 -16 -14 -14 -14 -15 -15 -15 -16 -17 -17 -17 -19 -21 -21 -21 -19 -20 -21 -21 -21 -20 -21 -21 -20 -19 -19 -19 -18 -17 -15 -14 -13 -14 -15 -16 -18 -19 -18 -16 -16 -16 -15 -14 -14 -13 -13 -12 -12 -14 -15 -14 -15 -17
-27 -28 -26 -24 -23 -21 -24 -25 -25 -25 -25 -24 -24 -27 -24 -20 -20 -18 -19 -17 -15 -17 -20 -17 -16 -20 -21 -19 -20 -19 -18 -17 -15 -13 -13 -13 -14 -15 -16 -16 -16 -18 -16 -17 -19 -23 -24 -23 -23 -23 -23 -22 -22 -23 -22 -22 -21 -21 -22 -20 -19 -19 -18 -18 -19 -19 -17 -17 -18 -18 -18 -18 -17 -16 -15 -15 -14 -14 -13 -13 -14 -15 -15 -18 -18
-27 -25 -24 -25 -23 -23 -24 -25 -28 -25 -25 -25 -24 -22 -18 -16 -15 -19 -19 -13 -12 -11 -12 -15 -14 -16 -19 -19 -19 -16 -17 -15 -13 -13 -13 -13 -13 -14 -14 -14 -15 -16 -16 -17 -19 -26 -25 -25 -25 -25 -24 -24 -24 -24 -23 -23 -23 -23 -22 -19 -20 -20 -19 -19 -19 -19 -18 -18 -19 -19 -19 -18 -19 -18 -17 -16 -16 -15 -14 -14 -16 -15 -16 -17 -18
-25 -25 -24 -24 -21 -22 -26 -26 -25 -26 -25 -25 -26 -24 -22 -20 -17 -15 -14 -13 -13 -13 -13 -12 -12 -12 -13 -18 -16 -13 -13 -14 -13 -13 -14 -14 -14 -15 -15 -15 -16 -16 -17 -19 -25 -25 -27 -26 -26 -25 -25 -25 -24 -24 -23 -24 -23 -24 -24 -23 -22 -21 -20 -21 -20 -19 -20 -21 -20 -20 -19 -19 -20 -19 -18 -17 -17 -17 -17 -16 -16 -16 -17 -17 -18
-29 -28 -28 -26 -24 -23 -27 -28 -25 -26 -25 -26 -25 -25 -25 -24 -22 -18 -16 -16 -14 -14 -14 -14 -13 -13 -13 -13 -15 -18 -14 -14 -14 -14 -14 -15 -15 -16 -16 -16 -16 -17 -18 -20 -25 -25 -27 -27 -26 -26 -25 -25 -24 -24 -24 -24 -24 -24 -24 -24 -23 -22 -22 -22 -20 -22 -22 -22 -22 -21 -20 -20 -20 -19 -19 -18 -17 -18 -18 -18 -18 -18 -18 -18 -18
-28 -27 -25 -25 -26 -25 -25 -26 -25 -26 -27 -26 -25 -25 -26 -25 -25 -24 -21 -18 -17 -16 -16 -16 -15 -14 -14 -13 -13 -14 -14 -14 -15 -15 -15 -15 -16 -17 -17 -17 -18 -18 -19 -24 -26 -26 -26 -26 -26 -26 -26 -26 -25 -25 -24 -24 -24 -24 -24 -24 -24 -23 -23 -23 -21 -23 -22 -22 -22 -23 -21 -21 -20 -20 -19 -19 -19 -19 -19 -19 -19 -19 -19 -20 -19
-31 -27 -26 -26 -27 -27 -27 -28 -27 -27 -28 -28 -28 -25 -25 -26 -26 -26 -25 -24 -22 -20 -18 -18 -17 -15 -15 -15 -14 -15 -15 -15 -15 -16 -16 -16 -17 -18 -19 -20 -19 -19 -20 -25 -26 -27 -26 -26 -25 -25 -25 -24 -23 -23 -23 -23 -23 -23 -23 -23 -23 -24 -24 -23 -22 -22 -23 -23 -23 -22 -21 -22 -21 -22 -22 -21 -20 -19 -20 -19 -20 -20 -21 -20 -20
-27 -22 -20 -21 -29 -28 -28 -29 -29 -29 -28 -27 -26 -27 -26 -26 -25 -24 -25 -26 -25 -25 -24 -22 -20 -17 -17 -16 -15 -16 -16 -16 -16 -17 -17 -17 -18 -19 -21 -25 -26 -25 -24 -25 -25 -26 -25 -25 -25 -24 -24 -23 -23 -22 -23 -23 -22 -22 -23 -22 -22 -22 -22 -21 -21 -22 -23 -23 -23 -23 -22 -22 -23 -21 -22 -22 -22 -21 -21 -20 -20 -20 -21 -21 -20
-28 -27 -28 -26 -26 -27 -29 -29 -29 -28 -27 -26 -27 -27 -25 -26 -24 -25 -26 -27 -27 -26 -25 -24 -24 -18 -17 -17 -16 -16 -17 -17 -17 -18 -18 -18 -19 -21 -26 -27 -27 -27 -26 -26 -26 -24 -24 -24 -24 -24 -23 -23 -22 -22 -22 -22 -22 -22 -21 -22 -23 -23 -22 -22 -22 -23 -23 -24 -23 -23 -23 -24 -23 -23 -23 -22 -22 -21 -21 -20 -21 -20 -20 -20 -19
-29 -26 -26 -26 -27 -29 -28 -29 -28 -25 -21 -24 -27 -27 -27 -26 -25 -27 -28 -27 -25 -27 -27 -25 -23 -23 -22 -21 -18 -17 -18 -19 -19 -19 -19 -19 -20 -24 -29 -29 -29 -28 -26 -26 -25 -24 -25 -25 -24 -24 -23 -23 -22 -22 -22 -22 -23 -23 -21 -22 -23 -23 -22 -21 -22 -24 -25 -24 -24 -24 -24 -24 -24 -23 -23 -23 -22 -21 -21 -20 -20 -20 -20 -20 -19
-30 -26 -26 -24 -27 -29 -29 -27 -26 -21 -25 -27 -27 -29 -26 -27 -25 -27 -27 -26 -25 -26 -26 -26 -23 -26 -26 -25 -19 -19 -21 -21 -21 -23 -22 -22 -24 -26 -27 -27 -27 -28 -27 -26 -25 -25 -26 -25 -24 -24 -23 -23 -23 -23 -23 -23 -23 -24 -23 -24 -23 -24 -20 -22 -23 -24 -24 -24 -25 -25 -24 -24 -24 -24 -22 -22 -22 -22 -21 -21 -21 -21 -21 -20 -19
-30 -23 -20 -19 -20 -26 -28 -26 -25 -27 -27 -26 -27 -27 -25 -25 -27 -26 -27 -29 -29 -27 -27 -28 -28 -27 -26 -24 -23 -21 -24 -26 -27 -27 -27 -26 -26 -27 -28 -27 -27 -27 -26 -26 -25 -25 -26 -26 -24 -23 -23 -24 -23 -24 -24 -24 -24 -24 -24 -24 -24 -23 -23 -23 -24 -24 -24 -25 -25 -24 -24 -24 -24 -24 -22 -22 -22 -22 -22 -22 -21 -21 -21 -20 -19
-29 -30 -24 -20 -24 -24 -25 -24 -26 -28 -27 -27 -27 -27 -28 -26 -28 -28 -28 -29 -28 -28 -28 -28 -28 -28 -26 -24 -22 -23 -28 -28 -28 -28 -28 -27 -27 -27 -27 -27 -27 -27 -27 -26 -26 -26 -26 -26 -25 -25 -25 -25 -24 -24 -24 -24 -25 -24 -24 -24 -24 -24 -23 -24 -24 -24 -24 -24 -24 -24 -24 -24 -24 -23 -22 -22 -22 -22 -22 -22 -21 -20 -19 -18 -18
-32 -30 -23 -22 -22 -26 -26 -26 -27 -27 -28 -28 -28 -29 -28 -27 -27 -27 -29 -28 -28 -28 -29 -29 -30 -28 -25 -21 -20 -21 -31 -31 -29 -29 -28 -28 -28 -28 -28 -28 -27 -28 -27 -26 -26 -25 -26 -26 -26 -25 -25 -25 -24 -24 -24 -25 -25 -24 -24 -24 -24 -24 -24 -24 -23 -23 -23 -24 -24 -24 -24 -23 -23 -23 -24 -23 -21 -21 -21 -21 -20 -19 -18 -17 -17
-32 -29 -28 -27 -25 -27 -27 -26 -27 -25 -28 -27 -28 -27 -27 -27 -28 -29 -28 -28 -28 -28 -28 -29 -30 -30 -24 -22 -22 -22 -27 -31 -30 -28 -28 -28 -28 -28 -28 -28 -28 -28 -28 -27 -27 -26 -25 -25 -25 -25 -25 -25 -25 -24 -24 -25 -25 -25 -25 -25 -25 -24 -23 -23 -23 -23 -23 -23 -23 -23 -23 -23 -22 -22 -22 -21 -22 -22 -22 -21 -20 -19 -18 -18 -17
-28 -28 -28 -26 -27 -27 -27 -28 -28 -28 -28 -28 -27 -24 -26 -28 -29 -29 -29 -28 -28 -28 -29 -29 -28 -28 -27 -24 -24 -24 -30 -30 -28 -29 -30 -28 -28 -28 -28 -29 -28 -28 -28 -28 -27 -26 -26 -26 -26 -26 -25 -25 -25 -24 -25 -25 -25 -25 -25 -25 -24 -23 -23 -22 -22 -22 -22 -23 -23 -23 -23 -23 -22 -22 -22 -22 -22 -22 -21 -21 -20 -19 -19 -18 -17
-29 -28 -27 -26 -27 -28 -27 -29 -28 -28 -29 -26 -26 -27 -27 -29 -30 -30 -30 -30 -28 -29 -29 -29 -29 -28 -28 -27 -27 -28 -29 -29 -30 -30 -29 -28 -28 -28 -29 -29 -28 -28 -28 -28 -27 -27 -27 -27 -26 -26 -26 -26 -25 -27 -25 -25 -24 -24 -24 -24 -23 -22 -22 -22 -22 -21 -21 -22 -23 -23 -23 -22 -22 -22 -22 -22 -22 -23 -22 -21 -21 -20 -19 -19 -18
-32 -29 -28 -29 -28 -29 -28 -29 -28 -29 -27 -28 -30 -30 -28 -30 -31 -29 -30 -29 -29 -29 -30 -30 -29 -29 -30 -29 -30 -29 -30 -30 -30 -29 -29 -29 -29 -29 -29 -29 -28 -29 -28 -28 -28 -28 -28 -28 -27 -27 -27 -26 -26 -25 -24 -24 -23 -23 -22 -23 -23 -23 -22 -21 -21 -21 -21 -21 -22 -22 -22 -22 -22 -22 -22 -22 -22 -22 -22 -22 -21 -20 -20 -19 -19
-31 -29 -28 -28 -28 -27 -28 -29 -27 -30 -31 -30 -30 -31 -30 -31 -32 -31 -30 -30 -29 -30 -29 -30 -31 -32 -30 -31 -30 -29 -30 -30 -30 -30 -29 -29 -29 -29 -29 -29 -29 -29 -29 -28 -28 -29 -28 -28 -28 -28 -27 -27 -25 -24 -24 -23 -22 -22 -21 -22 -21 -21 -21 -20 -20 -20 -20 -20 -21 -21 -21 -22 -22 -22 -22 -22 -22 -22 -22 -21 -20 -20 -20 -19 -19
-32 -29 -28 -28 -28 -28 -28 -28 -29 -29 -31 -29 -30 -30 -30 -30 -30 -29 -28 -28 -28 -29 -31 -30 -31 -31 -31 -31 -30 -30 -29 -29 -30 -29 -29 -30 -30 -29 -29 -29 -28 -28 -28 -28 -29 -29 -28 -28 -27 -27 -27 -26 -25 -24 -23 -22 -22 -21 -20 -20 -20 -20 -20 -18 -18 -18 -19 -19 -19 -21 -21 -22 -22 -22 -22 -22 -22 -22 -22 -21 -21 -20 -20 -19 -19
-31 -30 -29 -27 -29 -30 -31 -31 -30 -27 -31 -30 -30 -30 -29 -30 -31 -30 -31 -30 -30 -31 -31 -31 -32 -32 -30 -30 -30 -30 -29 -29 -30 -30 -29 -29 -29 -29 -29 -29 -29 -29 -29 -29 -29 -28 -28 -28 -28 -28 -27 -26 -25 -25 -24 -23 -22 -21 -20 -20 -19 -19 -18 -18 -18 -18 -18 -19 -19 -20 -21 -21 -22 -22 -22 -22 -22 -22 -22 -22 -21 -20 -19 -19 -18
-30 -30 -30 -29 -28 -30 -31 -31 -30 -32 -32 -32 -32 -32 -30 -31 -31 -33 -31 -32 -32 -32 -34 -32 -31 -31 -31 -30 -30 -29 -29 -28 -30 -29 -29 -29 -29 -29 -29 -29 -28 -29 -29 -29 -29 -29 -29 -29 -28 -28 -28 -27 -26 -25 -24 -23 -22 -21 -21 -20 -19 -18 -18 -18 -18 -18 -18 -19 -20 -20 -21 -22 -22 -23 -22 -22 -22 -22 -22 -22 -21 -20 -20 -19 -19
-30 -29 -30 -29 -30 -30 -30 -31 -33 -35 -33 -32 -34 -33 -32 -32 -33 -32 -30 -31 -33 -33 -33 -32 -31 -31 -31 -30 -30 -29 -29 -29 -29 -29 -29 -29 -28 -29 -28 -29 -29 -30 -30 -30 -29 -29 -29 -29 -29 -28 -27 -27 -26 -25 -24 -23 -23 -22 -21 -21 -19 -18 -18 -18 -18 -18 -19 -20 -20 -21 -21 -22 -23 -23 -23 -23 -23 -22 -23 -22 -21 -20 -20 -20 -20
-29 -30 -30 -30 -31 -31 -32 -33 -33 -34 -34 -33 -34 -35 -33 -33 -34 -33 -33 -32 -32 -31 -31 -31 -31 -31 -32 -32 -31 -30 -30 -30 -29 -29 -29 -29 -29 -29 -29 -29 -29 -30 -30 -29 -29 -29 -29 -29 -28 -28 -27 -26 -26 -25 -25 -24 -23 -22 -20 -19 -18 -19 -19 -19 -19 -19 -19 -19 -20 -21 -22 -22 -23 -24 -24 -23 -23 -23 -22 -21 -21 -21 -21 -20 -20